{"data":{"norad_id":60022,"intl_designator":"2024-111G","name":"STARLINK-31982","alt_names":[],"object_type":"PAYLOAD","status":"ACTIVE","operator":null,"country":"US","launch_date":"2024-06-08","launch_site_code":"AFETR","launch_vehicle":null,"mission":null,"orbit_class":"UNKNOWN","rcs_meters":null,"size_class":null,"mass_kg":null,"dimensions":null,"purposes":["comms"],"wikipedia_slug":null,"has_3d_model":false,"image_url":null,"decayed_at":null,"tle_current":{"epoch":"2026-05-25T04:35:51.210816Z","epoch_age_seconds":54499,"freshness":"FRESH","line1":"1 60022U 24111G   26145.19156494 -.00001256  00000+0 -26055-4 0  9993","line2":"2 60022  53.1610  79.0562 0001216  97.8193 262.2948 15.34373558110777","mean_motion":15.34373558,"eccentricity":0.0001216,"inclination_deg":53.161,"raan_deg":79.0562,"arg_perigee_deg":97.8193,"mean_anomaly_deg":262.2948,"bstar":-2.6055e-5,"rev_number":11077,"period_min":93.849375368342,"perigee_km":461.94997680211,"apogee_km":463.61368826218,"semimajor_km":6840.9188325321,"source":"CELESTRAK","updated_at":"2026-05-25T13:38:19.132098Z"}}}